Regional Weather Roundup
Issued by NWS

Home | Current Version | Previous Version | Text Only | Print | Product List | Glossary On
Versions: 1 2 3 4 5 6 7 8 9 10 11 12 13 14 15 16 17 18 19 20 21 22 23 24 25 26 27 28 29 30 31 32 33 34 35 36 37 38 39 40 41 42 43 44 45 46 47 48 49 50
000
ASUS46 KPQR 272210
RWROR

OREGON REGIONAL WEATHER ROUNDUP
NATIONAL WEATHER SERVICE PORTLAND OR
300 PM PDT THU APR 27 2017

NOTE: "FAIR" INDICATES FEW OR NO CLOUDS BELOW 12,000 FEET WITH
NO SIGNIFICANT WEATHER AND/OR OBSTRUCTIONS TO VISIBILITY.

ORZ001>013-272300-
NORTHWEST OREGON


CITY           SKY/WX    TMP DP  RH WIND       PRES   REMARKS
ASTORIA        MOSUNNY   53  38  56 W12G21    30.15R
NEWPORT        CLOUDY    52  45  76 W12       30.23R
PORTLAND       PTSUNNY   56  41  57 NW10      30.12S
VANCOUVER WA   PTSUNNY   54  41  61 NW12G18   30.12R
SCAPPOOSE      CLOUDY    51  46  83 SE6       30.12S
HILLSBORO      PTSUNNY   55  40  56 NW20      30.11F
AURORA         CLOUDY    52  46  80 SW6       30.14F
MCMINNVILLE    PTSUNNY   55  41  59 W14       30.15S
SALEM          LGT RAIN  53  45  74 W8        30.13S
CORVALLIS      PTSUNNY   54  45  71 NW7       30.16S
EUGENE         LGT RAIN  53  46  77 W12G22    30.17R
$$

ORZ021-028-272300-
SOUTHWEST OREGON


CITY           SKY/WX    TMP DP  RH WIND       PRES   REMARKS
NORTH BEND     CLOUDY    54  46  76 W14       30.25R
BROOKINGS      MOSUNNY   55  44  66 NW21G26   30.20S
ROSEBURG       LGT RAIN  54  44  69 NW5       30.18R
SEXTON SUMMIT  CLOUDY    44  37  76 VRB3      30.12S
MEDFORD        PTSUNNY   56  35  45 VRB3      30.13F
$$

ORZ014>016-041-272300-
COLUMBIA GORGE


CITY           SKY/WX    TMP DP  RH WIND       PRES   REMARKS
TROUTDALE      LGT RAIN  48  42  80 N5        30.12S
HOOD RIVER     MOSUNNY   54  37  54 W6G17     30.06S
THE DALLES     MOSUNNY   59  38  45 W21G28    30.03F
$$

ORZ029>031-041-044-049-050-061>064-502-503-505>511-272300-
EASTERN OREGON


CITY           SKY/WX    TMP DP  RH WIND       PRES   REMARKS
REDMOND        SUNNY     52  25  35 NW15G28   30.02F
BEND           MOSUNNY   48  27  43 N12G22    30.01S
PRINEVILLE     MOSUNNY   50  30  46 W22G30    30.02R
KLAMATH FALLS  PTSUNNY   45  28  51 NW9       30.07S
LAKEVIEW       CLOUDY    43  23  45 SE5       30.04S
HERMISTON      CLOUDY    59  34  39 W21G29    29.95F
PENDLETON      PTSUNNY   54  33  45 W14       29.96S
JOHN DAY       LGT SNOW  41  31  68 NW10G22   29.99S
MEACHAM        CLOUDY    43  25  49 CALM      29.95S
LA GRANDE      PTSUNNY   50  28  43 W16G23    29.96S
BAKER CITY     PTSUNNY   44  29  55 NW20G28   29.96S
BURNS          LGT RAIN  43  29  57 NW10G22   29.98S
ROME             N/A     46  21  37 NW7       29.97S
ONTARIO        SUNNY     54  25  32 W15G21    29.97S
$$



USA.gov is the U.S. government's official web portal to all federal, state and local government web resources and services.